Location: Gleizolles
(44.4833°N, 6.7667°E)
Time: 13:58:15
(UTC+00:00)

A-11 Canister half - Pass Details

Date: 15 June 2024
Orbit: 1515 x 1684 km, 47.2° (Epoch: 24 July)

Event Time Altitude Azimuth Distance (km) Brightness Sun altitude
Rises 00:11:35 0° 290° (WNW) 4,842 11.7 -21.6°
Reaches altitude 10° 00:14:44 10° 289° (WNW) 3,833 11.2 -21.5°
Maximum altitude 00:24:28 82° 205° (SSW) 1,584 8.9 -21.2°
Drops below altitude 10° 00:33:50 10° 119° (ESE) 3,700 10.9 -20.8°
Sets 00:36:50 0° 118° (ESE) 4,668 11.4 -20.7°
